Location: Furlange
(45.3167°N, 2.3667°E)
Time: 00:22:37
(UTC+00:00)

Daily predictions for brighter satellites

Satellite Brightness Start Highest point End
(mag) Time Altitude Azimuth Time Altitude Azimuth Time Altitude Azimuth
USA 215 4.3 03:20:47 10° E 03:25:43 38° NE 03:25:43 38° NE
Cosmos 1943 Rocket 2.6 04:06:38 58° ENE 04:06:38 58° ENE 04:11:31 10° NNE
CZ-2C R/B 4.2 04:04:02 10° SE 04:08:51 32° ENE 04:13:24 11° N
CENTAUR R/B 2.4 04:16:08 87° E 04:16:08 87° E 04:23:08 10° NE
Cosmos 2297 3.7 04:21:06 79° ENE 04:21:06 79° ENE 04:26:33 10° NNE
NOSS 3-2 (A) 3.5 04:27:49 61° N 04:27:49 61° N 04:33:35 10° NE
Cosmos 2278 Rocket 4.2 04:33:50 14° N 04:33:50 14° N 04:34:54 10° N
NOSS 3-2 (C) 3.2 04:33:35 62° SSW 04:34:38 85° SE 04:41:04 10° NE
Envisat 3.8 04:31:19 10° NNE 04:36:16 49° E 04:41:11 10° S
Cosmos 2098 Rocket 4.3 04:37:44 10° SSE 04:41:18 40° E 04:45:45 10° NNE
Meteor 2-3 Rocket 3.6 04:36:04 10° SSW 04:41:43 84° W 04:47:29 10° N
Cosmos 968 Rocket 3.4 04:42:38 34° SSW 04:44:58 85° ESE 04:50:07 10° NNE
Genesis I 3.6 04:49:24 60° SSE 04:49:24 60° SSE 04:52:46 10° SSE
Cosmos 921 Rocket 3.1 04:50:35 61° N 04:51:17 77° ENE 04:55:44 10° SSE
Meteor 1-26 Rocket 4.2 04:53:50 24° NNW 04:57:29 70° W 05:03:12 10° S
Cosmos 1812 2.9 04:56:57 49° NNE 04:57:49 67° E 05:01:38 10° SSE
Gbstr 26 Del rocket 4.4 05:01:04 23° SSW 05:01:04 23° SSW 05:03:28 10° SSE
USA 238 DEB 3.6 05:00:10 37° WSW 05:02:46 63° NW 05:09:37 10° NE
USA 238 3.6 05:00:14 37° WSW 05:02:52 63° NW 05:09:43 10° NE
Cosmos 1151 Rocket 3.2 05:01:35 19° N 05:04:42 73° E 05:09:03 10° SSE
Cosmos 2344 3.8 05:03:34 36° W 05:05:50 46° NW 05:13:31 10° NE
Cosmos 1766 Rocket 4.0 05:01:43 10° S 05:06:00 61° E 05:10:16 10° NNE
USA 215 3.2 05:02:50 10° SE 05:09:22 86° NE 05:13:03 29° NW
Cosmos 1782 3.8 05:15:55 30° SW 05:15:55 30° SW 05:18:15 10° SSW
Meteor 1-31 Rocket 2.7 05:10:48 10° NNE 05:14:43 89° ESE 05:18:37 10° SSW
Cosmos 2279 Rocket 4.0 05:09:06 10° N 05:15:20 83° E 05:21:32 10° S
Cosmos 1328 Rocket 3.8 05:12:58 10° N 05:17:22 70° E 05:21:42 10° SSE
SJ-12 3.9 05:16:03 10° N 05:20:07 58° WNW 05:24:11 10° SSW
Cosmos 2369 Rocket 2.0 05:14:52 10° SSW 05:20:26 75° WNW 05:26:05 10° NNE
FALCON 9 DEB 3.7 05:21:07 40° N 05:21:07 40° N 05:24:04 10° NE
Cosmos 1862 3.2 05:18:20 10° S 05:22:16 89° ESE 05:26:15 10° N
COSMO-SKYMED 1 2.6 05:19:18 10° S 05:23:33 57° W 05:25:48 26° NNW
H-2A R/B 2.9 05:24:32 10° N 05:28:05 44° WNW 05:31:38 10° SW
Cosmos 1634 Rocket 4.1 05:24:17 10° NNW 05:30:19 50° W 05:36:16 10° SSW
Cosmos 836 Rocket 4.4 05:27:51 19° NNW 05:31:38 65° WSW 05:36:47 10° S
CZ-4B R/B 3.6 05:33:59 10° NNE 05:37:28 49° E 05:40:56 10° S
CZ-4B R/B 3.9 05:37:07 10° ESE 05:39:40 21° ENE 05:42:14 10° NNE
MOS 1-B Rocket 4.5 05:34:02 10° SSW 05:39:53 37° W 05:44:43 12° NNW
Cosmos 1408 Rocket 3.8 05:37:06 10° S 05:41:22 69° E 05:45:40 10° NNE
Cosmos 1656 Rocket 3.5 05:38:46 10° SW 05:44:08 67° WNW 05:49:34 10° NNE
CZ-4C R/B 2.9 05:41:29 10° S 05:44:33 49° W 05:46:01 26° NW
Cosmos 1503 Rocket 4.0 05:39:18 10° SSW 05:44:34 84° WNW 05:49:56 10° NNE
DMSP B5D2-2 4.1 05:39:44 10° SSE 05:44:57 86° ENE 05:50:12 10° NNW
CZ-2C R/B 3.2 05:43:56 10° SSW 05:49:02 38° W 05:54:04 10° NNW
Cosmos 1943 Rocket 3.2 05:48:15 20° WNW 05:50:07 24° NW 05:54:41 10° N
Cosmos 1486 Rocket 4.3 05:47:16 10° SW 05:52:20 44° WNW 05:57:23 10° N
FALCON 9 DEB 4.4 05:56:51 18° NNW 05:57:30 19° N 05:59:43 10° NE
SL-8 R/B 3.7 05:54:22 20° WNW 05:57:42 82° SSW 06:02:29 10° ESE
Cosmos 1515 Rocket 3.4 05:53:18 10° N 05:57:42 80° W 06:02:01 10° S
Meteor 2-15 4.4 05:52:58 10° NNW 05:59:00 70° W 06:05:00 10° S
Meteor 1-27 Rocket 3.8 05:55:04 10° N 06:00:43 84° E 06:06:28 10° S
COSMOS 2487 4.2 06:01:37 10° N 06:04:35 28° ENE 06:07:32 10° SE
Cosmos 773 Rocket 4.0 05:59:50 10° NNW 06:05:06 84° WSW 06:10:17 10° SSE
SJ 16-02 1.9 06:01:36 10° S 06:05:54 62° ESE 06:10:14 10° NNE
CENTAUR R/B 3.6 06:03:21 15° W 06:07:45 29° NNW 06:14:07 10° NNE
NOAA 11 4.2 06:03:40 10° N 06:09:01 58° WNW 06:14:23 10° SSW
Alouette 2 Rocket 3.6 06:07:12 10° N 06:11:05 64° ENE 06:14:36 10° SSE
Meteor 2-19 Rocket 4.4 06:06:20 10° SSW 06:12:22 70° W 06:18:26 10° N
Cosmos 1340 Rocket 2.9 06:10:14 10° S 06:14:10 80° E 06:18:10 10° NNE
NOAA 12 4.0 06:08:57 10° NNE 06:14:15 78° WNW 06:19:29 10° SSW
Envisat 4.0 06:11:00 10° NNW 06:14:58 24° WNW 06:18:56 10° WSW
Cosmos 1500 Rocket 3.6 06:13:08 10° S 06:17:35 86° W 06:22:05 10° N
SL-27 R/B 2.4 06:14:44 10° NNW 06:18:19 67° WSW 06:21:50 10° S
DELTA 2 R/B (1) 4.5 06:15:28 10° WSW 06:20:43 45° S 06:26:00 10° ESE
Cosmos 1939 Rocket 2.7 06:16:51 10° N 06:20:47 70° WNW 06:24:38 10° SSW
Cosmos 2098 Rocket 4.4 06:19:50 10° WSW 06:22:42 19° WNW 06:26:04 10° NNW
NOSS 3-2 (C) 4.5 06:21:27 10° W 06:26:25 27° NNW 06:32:05 10° NNE
Cosmos 1805 Rocket 3.8 06:24:51 10° S 06:29:14 75° E 06:33:37 10° NNE
Sich 1 3.7 06:26:52 10° S 06:31:04 60° E 06:35:18 10° NNE
Okean O Rocket 3.9 06:27:17 10° NE 06:31:12 30° E 06:35:04 10° SSE
H-2A R/B 2.4 06:27:38 10° S 06:31:42 45° W 06:35:54 10° NNW
Cosmos 2026 Rocket 4.3 06:25:37 10° S 06:31:57 76° E 06:38:15 10° NNE
Meteor 1-25 Rocket 4.4 06:27:53 10° S 06:33:32 82° E 06:39:08 10° NNE
ATLAS 3B R/B 3.0 06:27:36 10° SSW 06:34:05 74° ESE 06:40:54 10° NE
Cosmos 1174 3.0 06:34:36 10° SW 06:37:34 85° NW 06:40:40 10° NNE
Cosmos 1500 3.9 06:34:00 10° S 06:37:45 59° E 06:41:31 10° NNE
ATLAS 5 CENTAUR R/B 1.3 06:34:13 10° SW 06:38:01 90° SW 06:42:20 10° NE
ADEOS 4.4 06:34:41 10° N 06:39:07 29° WNW 06:43:32 10° WSW
Cosmos 158 Rocket 4.0 06:35:20 10° NNW 06:40:29 89° ENE 06:45:44 10° SSE
